Regional Weather Roundup
Issued by NWS

Home | Current Version | Previous Version | Text Only | Print | Product List | Glossary Off
Versions: 1 2 3 4 5 6 7 8 9 10 11 12 13 14 15 16 17 18 19 20 21 22 23 24 25 26 27

000
ASUS45 KSLC 291010
RWRUT

UTAH REGIONAL WEATHER ROUNDUP
NATIONAL WEATHER SERVICE SALT LAKE CITY UT
400 AM MDT FRI JUL 29 2016

UTZ001>011-023>025-291100-

NORTHERN UTAH

CITY           SKY/WX    TMP DP  RH WIND       PRES   REMARKS
BRIGHAM CITY     N/A     66  40  39 NW5       30.04S
HILL AFB       CLEAR     71  37  28 E16       30.07S
LOGAN          CLEAR     54  48  80 W6        30.07S
OGDEN          CLEAR     70  39  32 S8        30.04S
PROVO AIRPORT  CLEAR     66  39  37 S6        30.06R
SALT LAKE CITY CLEAR     76  44  32 SW5       30.02S
VERNAL         CLEAR     66  32  28 SW3       30.11S
WENDOVER       PTCLDY    79  37  22 NW6       30.06S
HEBER CITY     CLEAR     54  41  62 CALM      30.17S
WEST JORDAN    CLEAR     73  37  27 CALM      30.06F

$$

UTZ012>022-026-027-291100-

SOUTHERN/CENTRAL UTAH

CITY           SKY/WX    TMP DP  RH WIND       PRES   REMARKS
BLANDING       CLEAR     73  31  21 E3        30.20S
BRYCE CANYON   PTCLDY    55  37  50 W12       30.33F
CEDAR CITY     PTCLDY    73  37  27 SE7       30.15F
DELTA          PTCLDY    68  36  30 NE6       30.06S
MILFORD        PTCLDY    75  37  25 SW14      30.08S
MOAB/CYNLANDS  CLEAR     76  25  15 W3        30.00S
PRICE          CLEAR     71  28  20 N7        30.15S
ST GEORGE      SUNNY     84  45  24 SE7       29.93S

$$

REGIONAL REPORTS     COLORADO/ARIZONA

CITY           SKY/WX    TMP DP  RH WIND       PRES   REMARKS
CRAIG, CO      CLOUDY    49  38  65 CALM      30.21R
GRAND JUNCTION CLEAR     70  29  21 SE3       30.05R
RIFLE          CLEAR     58  34  40 CALM      30.15R
MONTROSE       CLEAR     63  37  38 S9        30.16R
CORTEZ         CLOUDY    62  39  42 E8        30.15S
PAGE, AZ       CLEAR     82  41  23 S5        30.00R
GRAND CANYON   MOCLDY    54  47  77 CALM      30.25S HAZE
KINGMAN        PTCLDY    78  46  32 S9        29.96F
FLAGSTAFF      MOCLDY    70  40  33 CALM      30.26S

$$

REGIONAL REPORTS    NEVADA/IDAHO/WYOMING

CITY           SKY/WX    TMP DP  RH WIND       PRES   REMARKS
LAS VEGAS, NV  MOCLDY    97  47  18 NW8       29.78S HX  93
ELY            PTCLDY    69  35  28 NW5       30.21S
ELKO           CLEAR     65  35  33 CALM      30.11S
POCATELLO, ID  CLEAR     60  36  40 SW8       30.05S
BURLEY         CLOUDY    63  43  48 CALM      30.04R
EVANSTON, WY   CLOUDY    61  30  31 E7        30.29S
ROCK SPRINGS   CLEAR     59  44  57 CALM      30.27S
KEMMERER         N/A     55  39  54 N9        30.31F

$$




USA.gov is the U.S. government's official web portal to all federal, state and local government web resources and services.